TimeCDT,TemperatureF,Dew PointF,Humidity,Sea Level PressureIn,VisibilityMPH,Wind Direction,Wind SpeedMPH,Gust SpeedMPH,PrecipitationIn,Events,Conditions,WindDirDegrees,DateUTC
12:53 AM,62.1,60.1,93,30.03,7.0,Calm,Calm,-,N/A,,Clear,0,2013-05-11 05:53:00
1:53 AM,60.1,59.0,96,30.01,4.0,Calm,Calm,-,N/A,,Clear,0,2013-05-11 06:53:00
2:15 AM,60.8,59.0,94,30.01,4.0,Calm,Calm,-,N/A,,Partly Cloudy,0,2013-05-11 07:15:00
2:53 AM,61.0,60.1,97,30.00,9.0,Calm,Calm,-,N/A,,Mostly Cloudy,0,2013-05-11 07:53:00
3:53 AM,62.1,60.1,93,30.00,10.0,Calm,Calm,-,N/A,,Overcast,0,2013-05-11 08:53:00
4:53 AM,63.0,61.0,93,29.99,10.0,South,3.5,-,N/A,,Overcast,180,2013-05-11 09:53:00
5:53 AM,63.0,61.0,93,29.98,10.0,Calm,Calm,-,N/A,,Scattered Clouds,0,2013-05-11 10:53:00
6:53 AM,63.0,61.0,93,30.00,8.0,Calm,Calm,-,0.00,Rain,Light Rain,0,2013-05-11 11:53:00
7:53 AM,64.0,62.1,93,30.01,10.0,Calm,Calm,-,0.02,,Clear,0,2013-05-11 12:53:00
8:53 AM,64.9,62.1,90,30.02,10.0,WNW,6.9,-,N/A,,Mostly Cloudy,300,2013-05-11 13:53:00
9:53 AM,66.9,62.1,84,30.02,10.0,Calm,Calm,-,N/A,,Mostly Cloudy,0,2013-05-11 14:53:00
10:07 AM,66.2,62.6,88,30.03,10.0,West,4.6,-,N/A,,Mostly Cloudy,280,2013-05-11 15:07:00
10:53 AM,69.1,64.0,84,30.04,10.0,SW,4.6,-,N/A,,Overcast,220,2013-05-11 15:53:00
11:53 AM,73.0,64.0,73,30.02,10.0,SW,5.8,-,N/A,,Clear,230,2013-05-11 16:53:00
12:18 PM,73.4,62.6,69,30.03,10.0,Variable,4.6,-,N/A,,Mostly Cloudy,0,2013-05-11 17:18:00
12:53 PM,75.0,64.0,69,30.03,10.0,SSW,10.4,18.4,N/A,,Mostly Cloudy,210,2013-05-11 17:53:00
1:53 PM,75.0,62.1,64,30.02,10.0,WSW,8.1,-,N/A,,Clear,240,2013-05-11 18:53:00
2:53 PM,75.0,63.0,66,29.99,10.0,South,4.6,-,N/A,,Partly Cloudy,190,2013-05-11 19:53:00
3:53 PM,75.0,64.0,69,29.99,10.0,West,5.8,-,N/A,,Mostly Cloudy,260,2013-05-11 20:53:00
4:53 PM,75.0,64.9,71,29.97,10.0,West,5.8,-,N/A,,Mostly Cloudy,280,2013-05-11 21:53:00
5:53 PM,75.9,64.9,69,29.97,10.0,West,6.9,-,N/A,,Mostly Cloudy,270,2013-05-11 22:53:00
6:53 PM,75.0,64.0,69,29.98,10.0,NW,6.9,-,N/A,,Clear,310,2013-05-11 23:53:00
7:53 PM,73.0,64.9,76,30.00,10.0,Calm,Calm,-,N/A,,Clear,0,2013-05-12 00:53:00
9:53 PM,70.0,64.0,81,30.04,10.0,NNW,5.8,-,N/A,,Partly Cloudy,340,2013-05-12 02:53:00
10:53 PM,69.1,63.0,81,30.06,10.0,NNW,8.1,-,N/A,,Clear,330,2013-05-12 03:53:00
11:53 PM,66.9,62.1,84,30.05,10.0,North,5.8,-,N/A,,Clear,350,2013-05-12 04:53:00